[[{"header":{"parameterUnit":"m.s-1","parameterCategory":2,"la1":30.2991,"la2":30.254,"lo1":-89.0895,"lo2":-89.0444,"dy":0.0017,"dx":0.0017,"nx":28,"ny":28,"refTime":"2024-08-19T21:00:00:Z","depth":"0","parameterNumber":2,"parameterNumberName":"U-component_of_CURRENTS"},"data":[0,0,0,0,0,0,0,0,0,0,0,0,0,0,0,0,0,0,0,0,0,0,0,0,0,0,0,0,0,0,0,0,0,0,0,0,0,0,0,0,0,0,0,0,0,0,0,0,0,0,0,0,0,0,0,0,0,0,0.1855,0.1855,0,0.1864,0.1864,0.1864,0.1862,0.1862,0.1862,0.1862,0.1859,0.1859,0.1859,0,0,0,0,0,0,0,0,0,0,0,0,0,0.1889,0.1888,0.1855,0.1855,0.1856,0.1864,0.1864,0.1864,0.1862,0.1862,0.1862,0.1862,0.1859,0.1859,0.1859,0,0,0,0,0,0,0,0,0,0,0,0,0,0.1884,0.1888,0.1855,0.1856,0.1856,0.1864,0.1864,0.1864,0.1862,0.1862,0.1862,0.1862,0.1859,0.1859,0.1859,0.1864,0,0,0.1859,0.1859,0,0,0,0,0,0,0,0,0.1884,0.1882,0.1856,0.1856,0.1856,0.1862,0.1874,0.1863,0.1863,0.186,0.1862,0.1862,0.1859,0.1859,0.1861,0.1864,0.1864,0.1859,0.1859,0.1859,0.1859,0,0,0,0,0,0,0,0.1884,0.1882,0.1859,0.1856,0.1856,0.1873,0.1871,0.1873,0.1861,0.186,0.186,0.1861,0.1859,0.1861,0.1861,0.1864,0.1859,0.1859,0.1859,0.1859,0.1907,0.1908,0,0,0,0,0,0,0.188,0.1882,0.1859,0.1859,0.1869,0.1872,0.1871,0.186,0.1861,0.1861,0.1861,0.1861,0.1861,0.1861,0.1861,0.1892,0.1859,0.1859,0.1859,0.1906,0.1907,0.1909,0,0,0,0,0,0,0.1881,0.1878,0.1858,0.1872,0.187,0.1871,0.186,0.186,0.1863,0.1861,0.1861,0.1864,0.1861,0.1861,0.1868,0.1891,0.1859,0.1859,0.1904,0.1906,0.1908,0.1939,0,0,0,0,0,0,0.1881,0.1877,0.1874,0.1871,0.1869,0.1865,0.186,0.1861,0.1864,0.1864,0.1864,0.1863,0.1861,0.1868,0.1868,0.1891,0.186,0.1903,0.1905,0.1907,0.1937,0.1942,0.1946,0,0,0,0,0,0.1882,0.1878,0.1873,0.1871,0.1862,0.1865,0.1866,0.1867,0.1864,0.1868,0.187,0.1863,0.1883,0.1869,0.1869,0.1892,0.1902,0.1905,0.1907,0.1934,0.1941,0.1946,0,0,0,0,0,0,0.189,0.1878,0.1872,0.1863,0.1865,0.1865,0.187,0.1869,0.1874,0.1874,0.187,0.187,0.1891,0.1886,0.187,0.1915,0.1895,0.1898,0.1916,0.1921,0.1926,0.1943,0.186,0,0,0,0,0,0.1889,0.1882,0.1876,0.1869,0.187,0.187,0.1873,0.1873,0.1875,0.1877,0.1878,0.1886,0.1903,0.1906,0.1916,0.1931,0.194,0.195,0.1955,0.1959,0.1974,0.1998,0.2007,0.1918,0.1918,0.1918,0,0,0.1891,0.1883,0.1879,0.1871,0.1872,0.1881,0.1871,0.1876,0.189,0.1876,0.1896,0.1902,0.1911,0.1935,0.1944,0.1932,0.1991,0.1962,0.1965,0.1979,0.2002,0.2011,0.2019,0.1919,0.1919,0.1919,0,0,0.1896,0.1883,0.1882,0.1885,0.1886,0.189,0.1891,0.1894,0.1902,0.192,0.1922,0.1942,0.1954,0.1973,0.1983,0.2021,0.2017,0.2023,0.2056,0.208,0.2087,0.2094,0.2121,0.213,0.2022,0.2022,0.2022,0,0.19,0.1891,0.1885,0.1891,0.1895,0.1895,0.1903,0.1918,0.1926,0.1937,0.1932,0.1976,0.1981,0.2021,0.204,0.2034,0.2043,0.203,0.2086,0.2093,0.2099,0.2125,0.2135,0.2024,0.2024,0.2023,0.2023,0,0.1906,0.1904,0.1906,0.1911,0.192,0.1924,0.1941,0.1955,0.1964,0.1979,0.2017,0.2032,0.2057,0.2067,0.2067,0.2118,0.211,0.2089,0.2069,0.211,0.2135,0.2144,0.2027,0.2026,0.2025,0.2025,0,0,0.1894,0.1907,0.1906,0.1907,0.1927,0.1928,0.1965,0.199,0.2008,0.2037,0.2069,0.2114,0.212,0.2134,0.2138,0.2165,0.2221,0.2149,0.215,0.2173,0.2277,0.213,0.2126,0.2203,0.2204,0.2206,0.2278,0,0.1896,0.1904,0.1916,0.1928,0.193,0.1952,0.1982,0.201,0.2036,0.2068,0.2108,0.2134,0.2146,0.2152,0.2191,0.2211,0.2246,0.2204,0.2238,0.224,0.21,0.2131,0.1981,0.2019,0.2287,0.2288,0.229,0,0.1886,0.1894,0.1903,0.1922,0.1926,0.1941,0.1974,0.2002,0.2061,0.2083,0.2133,0.2154,0.222,0.2207,0.2292,0.2261,0.2282,0.2298,0.23,0.2159,0.2108,0.2021,0.2025,0.1974,0.2303,0.2302,0.2301,0,0.1852,0.1876,0.1877,0.1884,0.1917,0.1928,0.195,0.2002,0.2026,0.2087,0.2112,0.2187,0.2214,0.2271,0.2311,0.2305,0.2387,0.2375,0.2271,0.2261,0.2138,0.2113,0.2091,0.2436,0.2436,0.2435,0.2435,0,0.1829,0.1826,0.1857,0.1855,0.1866,0.1899,0.1919,0.1956,0.2011,0.2044,0.2111,0.2148,0.2229,0.228,0.2325,0.2319,0.24,0.2287,0.2268,0.2143,0.2118,0.207,0.207,0.2438,0.2437,0.2437,0.2436,0,0.1775,0.1795,0.1799,0.1835,0.1844,0.1849,0.1892,0.1914,0.1968,0.2016,0.2035,0.2126,0.2169,0.2233,0.231,0.2303,0.2244,0.2304,0.2147,0.2105,0.1912,0.192,0.1828,0.1781,0.2201,0.2198,0.2195,0,0.1739,0.1738,0.1774,0.1781,0.1793,0.181,0.183,0.1885,0.1913,0.1999,0.2024,0.2071,0.2088,0.2135,0.2118,0.2135,0.2121,0.2002,0.1949,0.188,0.1878,0.1838,0.1805,0.1824,0.1818,0.1814,0.181,0,0.1689,0.1707,0.1724,0.1739,0.1753,0.1773,0.1803,0.1815,0.1885,0.1911,0.1946,0.1957,0.196,0.1878,0.1863,0.1866,0.1861,0.1902,0.1885,0.1617,0.1523,0.1473,0.1816,0.1769,0.1773,0.1776,0.1779,0.178,0.1656,0.1663,0.1692,0.1693,0.1717,0.173,0.1708,0.1741,0.1753,0.1744,0.1829,0.1766,0.1698,0.1625,0.1622,0.1478,0.1556,0.1418,0.1452,0.1433,0.131,0.1544,0.1424,0.1425,0.1427,0.1429,0.143,0,0.1606,0.1625,0.1641,0.1644,0.1634,0.1668,0.1682,0.1634,0.1593,0.1591,0.1567,0.1439,0.1322,0.1273,0.1136,0.1063,0.1054,0.1033,0.0987,0.0994,0.1247,0.115,0.0896,0.0896,0.0896,0.0896,0.0896,0.0896,0.1587,0.158,0.1585,0.1549,0.1548,0.1497,0.148,0.142,0.1385,0.1242,0.113,0.1108,0.1066,0.0937,0.0812,0.079,0.0779,0.0673,0.0766,0.0981,0.1021,0.106,0.0968,0.068,0.068,0.0431,0.043,0.0428]},{"header":{"parameterUnit":"m.s-1","parameterCategory":2,"la1":30.2991,"la2":30.254,"lo1":-89.0895,"lo2":-89.0444,"dy":0.0017,"dx":0.0017,"nx":28,"ny":28,"refTime":"2024-08-19T21:00:00:Z","depth":"0","parameterNumber":3,"parameterNumberName":"V-component_of_CURRENTS"},"data":[0,0,0,0,0,0,0,0,0,0,0,0,0,0,0,0,0,0,0,0,0,0,0,0,0,0,0,0,0,0,0,0,0,0,0,0,0,0,0,0,0,0,0,0,0,0,0,0,0,0,0,0,0,0,0,0,0,0,-0.0515,-0.0515,0,-0.0508,-0.0507,-0.0507,-0.0522,-0.0523,-0.0523,-0.0524,-0.054,-0.054,-0.054,0,0,0,0,0,0,0,0,0,0,0,0,0,-0.054,-0.054,-0.0515,-0.0515,-0.0515,-0.0508,-0.0507,-0.0507,-0.0522,-0.0523,-0.0523,-0.0524,-0.054,-0.054,-0.054,0,0,0,0,0,0,0,0,0,0,0,0,0,-0.0531,-0.0539,-0.0515,-0.0521,-0.0522,-0.0508,-0.0507,-0.0507,-0.0522,-0.0523,-0.0524,-0.0524,-0.054,-0.054,-0.054,-0.0526,0,0,-0.054,-0.054,0,0,0,0,0,0,0,0,-0.0531,-0.053,-0.052,-0.0521,-0.0521,-0.0516,-0.0522,-0.0515,-0.0522,-0.0522,-0.0524,-0.0525,-0.0534,-0.0534,-0.0531,-0.0527,-0.0527,-0.054,-0.054,-0.054,-0.054,0,0,0,0,0,0,0,-0.0532,-0.053,-0.0512,-0.052,-0.0521,-0.0524,-0.0523,-0.0521,-0.0525,-0.0522,-0.0523,-0.0522,-0.0534,-0.0531,-0.0532,-0.0528,-0.054,-0.054,-0.054,-0.054,-0.0495,-0.0494,0,0,0,0,0,0,-0.0531,-0.0531,-0.0512,-0.0512,-0.0528,-0.0523,-0.0522,-0.0517,-0.0524,-0.0526,-0.0521,-0.0522,-0.0531,-0.0532,-0.0532,-0.0504,-0.054,-0.054,-0.054,-0.0496,-0.0495,-0.0494,0,0,0,0,0,0,-0.0532,-0.053,-0.0513,-0.0521,-0.0519,-0.0521,-0.0516,-0.0517,-0.0512,-0.0523,-0.0525,-0.0516,-0.0531,-0.0532,-0.0518,-0.0505,-0.054,-0.054,-0.0498,-0.0496,-0.0494,-0.0454,0,0,0,0,0,0,-0.0533,-0.053,-0.0526,-0.0521,-0.0519,-0.0496,-0.0515,-0.0516,-0.051,-0.0512,-0.0519,-0.0521,-0.0532,-0.0518,-0.0518,-0.0506,-0.054,-0.0499,-0.0497,-0.0495,-0.0457,-0.0452,-0.0447,0,0,0,0,0,-0.0534,-0.0522,-0.0525,-0.0523,-0.0513,-0.0495,-0.0493,-0.0498,-0.0509,-0.0498,-0.0501,-0.0521,-0.0504,-0.0516,-0.0517,-0.0505,-0.05,-0.0498,-0.0495,-0.046,-0.0453,-0.0447,0,0,0,0,0,0,-0.0532,-0.0522,-0.0526,-0.0513,-0.0502,-0.0497,-0.0488,-0.0492,-0.0486,-0.0489,-0.0504,-0.0505,-0.0489,-0.0497,-0.051,-0.0484,-0.0506,-0.0503,-0.0479,-0.0473,-0.0467,-0.0455,-0.054,0,0,0,0,0,-0.0529,-0.0516,-0.0508,-0.0496,-0.049,-0.0489,-0.0483,-0.0483,-0.0478,-0.0476,-0.048,-0.0482,-0.0477,-0.0475,-0.0473,-0.0456,-0.0448,-0.0448,-0.0442,-0.0438,-0.0426,-0.0398,-0.0389,-0.0485,-0.0485,-0.0485,0,0,-0.0527,-0.0518,-0.0513,-0.0495,-0.0489,-0.0467,-0.0486,-0.0471,-0.0455,-0.0479,-0.0457,-0.0463,-0.0468,-0.0449,-0.0443,-0.0455,-0.0406,-0.0434,-0.0431,-0.0421,-0.0394,-0.0385,-0.0377,-0.0483,-0.0483,-0.0484,0,0,-0.0505,-0.0506,-0.0483,-0.0471,-0.0454,-0.045,-0.0443,-0.0433,-0.043,-0.0409,-0.0423,-0.0413,-0.0408,-0.0405,-0.0405,-0.0366,-0.0378,-0.0372,-0.0335,-0.0308,-0.03,-0.0293,-0.0269,-0.026,-0.037,-0.0369,-0.0369,0,-0.0504,-0.0476,-0.0474,-0.0446,-0.0435,-0.0439,-0.0413,-0.0405,-0.0391,-0.0383,-0.0395,-0.0374,-0.0384,-0.0358,-0.0348,-0.0354,-0.0342,-0.0363,-0.0301,-0.0294,-0.0287,-0.0265,-0.0255,-0.0367,-0.0367,-0.0368,-0.0368,0,-0.046,-0.0441,-0.0425,-0.0394,-0.038,-0.0358,-0.0348,-0.0334,-0.0336,-0.0329,-0.0304,-0.0308,-0.0294,-0.0299,-0.0314,-0.0273,-0.0281,-0.0298,-0.0319,-0.0275,-0.0254,-0.0245,-0.0364,-0.0365,-0.0365,-0.0366,0,0,-0.0444,-0.0405,-0.0397,-0.0378,-0.0353,-0.0334,-0.0308,-0.0283,-0.0259,-0.0252,-0.0216,-0.0215,-0.022,-0.0218,-0.0233,-0.0215,-0.0164,-0.0235,-0.0235,-0.0214,-0.0101,-0.0126,-0.0119,-0.0173,-0.0171,-0.0169,-0.0105,0,-0.041,-0.0356,-0.0345,-0.0297,-0.0272,-0.027,-0.0243,-0.0223,-0.0209,-0.0174,-0.0177,-0.0148,-0.0188,-0.0176,-0.0164,-0.0156,-0.0138,-0.018,-0.0144,-0.0143,-0.0172,-0.0108,-0.0109,-0.0053,-0.0096,-0.0094,-0.0093,0,-0.0364,-0.0335,-0.0288,-0.0251,-0.0239,-0.0213,-0.0175,-0.015,-0.0114,-0.0101,-0.0077,-0.0075,-0.004,-0.0083,-0.0045,-0.0069,-0.008,-0.0083,-0.0081,-0.011,-0.015,-0.0103,-0.0035,-0.0071,-0.008,-0.0081,-0.0082,0,-0.0347,-0.0295,-0.0259,-0.0245,-0.0203,-0.0183,-0.0162,-0.0128,-0.0095,-0.0046,-0.0006,0.0016,0.0053,0.0046,0.0034,0.0003,0.0075,0.0031,-0.0002,-0.0004,0.0,-0.0005,0.0037,0.0057,0.0057,0.0057,0.0057,0,-0.0313,-0.028,-0.0247,-0.0225,-0.0174,-0.016,-0.0104,-0.0081,-0.0031,0.0037,0.0037,0.0103,0.0089,0.0121,0.0083,0.0083,0.0116,0.0026,0.002,0.0013,0.0009,-0.0021,-0.0051,0.0059,0.0059,0.0058,0.0058,0,-0.0292,-0.0272,-0.0225,-0.0182,-0.0163,-0.0127,-0.0065,-0.002,0.0019,0.0114,0.0139,0.0194,0.0241,0.0214,0.0225,0.0161,0.0132,0.0131,0.0121,0.0111,0.0021,-0.0007,0.0041,0.0026,0.0111,0.0111,0.0111,0,-0.0273,-0.0249,-0.0194,-0.0156,-0.0131,-0.0078,-0.0034,0.0004,0.0062,0.018,0.0239,0.0306,0.0368,0.0364,0.0278,0.0221,0.0165,0.0157,0.0088,0.0039,0.0003,-0.0012,-0.0029,0.0115,0.0115,0.0115,0.0115,0,-0.0233,-0.022,-0.0182,-0.011,-0.0057,0.0002,0.0069,0.0121,0.0193,0.0281,0.0408,0.0466,0.046,0.0416,0.0313,0.0255,0.0132,0.0152,0.0119,0.0032,0.0005,-0.002,0.0043,0.0114,0.0114,0.0114,0.0114,0.0114,-0.0198,-0.0166,-0.0115,-0.0047,0.0013,0.009,0.0148,0.0229,0.0334,0.0469,0.0513,0.0594,0.0507,0.0372,0.0298,0.0136,0.0134,0.0069,0.0048,0.0044,0.0006,0.0061,0.0105,0.0105,0.0105,0.0105,0.0105,0,-0.0136,-0.0103,-0.0046,0.0038,0.0106,0.0125,0.0229,0.0293,0.0429,0.0524,0.0622,0.0596,0.0496,0.0358,0.0151,0.0048,0.0012,-0.0001,-0.0014,-0.0022,0.0051,0.0024,0.0032,0.0032,0.0032,0.0032,0.0032,0.0032,-0.0094,-0.003,-0.001,0.0107,0.0163,0.0259,0.0318,0.0416,0.049,0.059,0.0606,0.0603,0.0494,0.0221,0.0033,-0.0015,-0.0078,-0.0089,-0.0115,-0.0072,-0.0067,-0.0062,-0.0094,-0.011,-0.0111,-0.0172,-0.0173,-0.0174]}],[{"header":{"parameterUnit":"m.s-1","parameterCategory":2,"la1":30.2991,"la2":30.254,"lo1":-89.0895,"lo2":-89.0444,"dy":0.0017,"dx":0.0017,"nx":28,"ny":28,"refTime":"2024-08-19T21:00:00:Z","depth":"2","parameterNumber":2,"parameterNumberName":"U-component_of_CURRENTS"},"data":[0,0,0,0,0,0,0,0,0,0,0,0,0,0,0,0,0,0,0,0,0,0,0,0,0,0,0,0,0,0,0,0,0,0,0,0,0,0,0,0,0,0,0,0,0,0,0,0,0,0,0,0,0,0,0,0,0,0,0.1368,0.1368,0,0.1453,0.1454,0.1455,0.148,0.1479,0.1479,0.1478,0.1485,0.1486,0.1486,0,0,0,0,0,0,0,0,0,0,0,0,0,0.1369,0.1368,0.1368,0.1368,0.1369,0.1452,0.1454,0.1455,0.148,0.1479,0.1478,0.1478,0.1485,0.1486,0.1487,0,0,0,0,0,0,0,0,0,0,0,0,0,0.1405,0.1368,0.1367,0.1389,0.1392,0.1452,0.1454,0.1456,0.148,0.1479,0.1478,0.1477,0.1484,0.1485,0.1487,0.1516,0,0,0.1491,0.1491,0,0,0,0,0,0,0,0,0.1403,0.1405,0.1385,0.1388,0.1391,0.1452,0.1457,0.1471,0.1481,0.145,0.1478,0.1477,0.1465,0.1468,0.1492,0.1517,0.1517,0.1491,0.1492,0.1492,0.1492,0,0,0,0,0,0,0,0.14,0.1403,0.1404,0.1386,0.139,0.1443,0.1446,0.1461,0.1464,0.1453,0.1454,0.1459,0.1467,0.1491,0.1492,0.1517,0.1491,0.1492,0.1493,0.1493,0.1578,0.1579,0,0,0,0,0,0,0.1377,0.1399,0.1402,0.1407,0.1391,0.1443,0.1447,0.1436,0.1465,0.1468,0.146,0.146,0.1489,0.1491,0.1492,0.1534,0.1492,0.1493,0.1494,0.1576,0.1578,0.1579,0,0,0,0,0,0,0.1376,0.1376,0.1398,0.1404,0.141,0.1443,0.1432,0.1438,0.1466,0.1471,0.1473,0.148,0.1488,0.149,0.1494,0.1534,0.1494,0.1495,0.1574,0.1577,0.1579,0.1614,0,0,0,0,0,0,0.1376,0.1375,0.1373,0.1401,0.1408,0.1426,0.1433,0.144,0.1468,0.1469,0.1489,0.1488,0.1488,0.1492,0.1495,0.1535,0.1496,0.1573,0.1575,0.1578,0.1611,0.1617,0.1622,0,0,0,0,0,0.1375,0.1378,0.1372,0.1373,0.1399,0.1426,0.1435,0.1459,0.147,0.1481,0.1487,0.1488,0.1513,0.1494,0.1497,0.1538,0.1571,0.1575,0.1578,0.1608,0.1616,0.1622,0,0,0,0,0,0,0.1376,0.1381,0.1375,0.1377,0.1393,0.1428,0.1455,0.1466,0.1487,0.1492,0.1493,0.1493,0.1514,0.1521,0.1499,0.1572,0.1549,0.1553,0.1571,0.1578,0.1584,0.1601,0.1497,0,0,0,0,0,0.1373,0.1381,0.1384,0.1391,0.1399,0.1429,0.1449,0.146,0.1477,0.1488,0.1496,0.1515,0.1535,0.1547,0.1558,0.1594,0.1592,0.1628,0.1634,0.1638,0.1656,0.1667,0.1675,0.159,0.159,0.159,0,0,0.1377,0.1383,0.1387,0.1393,0.1417,0.1437,0.144,0.1471,0.1489,0.1484,0.1514,0.1526,0.1545,0.158,0.1594,0.1588,0.1662,0.1643,0.1646,0.1662,0.1671,0.1679,0.1686,0.1593,0.1592,0.1592,0,0,0.1395,0.1393,0.1404,0.1418,0.1441,0.1459,0.1464,0.1493,0.1505,0.1532,0.1536,0.1565,0.1598,0.162,0.1638,0.1685,0.1683,0.17,0.1754,0.1764,0.177,0.1776,0.1782,0.1788,0.1714,0.1714,0.1714,0,0.14,0.1402,0.1414,0.143,0.1444,0.1466,0.1479,0.1506,0.153,0.1544,0.1542,0.1615,0.1624,0.168,0.1704,0.1699,0.1702,0.1722,0.177,0.1776,0.1781,0.1785,0.1792,0.1716,0.1716,0.1715,0.1715,0,0.1419,0.1426,0.1442,0.1462,0.148,0.1502,0.152,0.1542,0.1566,0.1592,0.1642,0.1665,0.1709,0.173,0.1738,0.1798,0.1785,0.1764,0.1748,0.1792,0.1793,0.1799,0.1719,0.1718,0.1717,0.1717,0,0,0.1417,0.1444,0.1451,0.1456,0.1494,0.1507,0.1544,0.1574,0.1606,0.1649,0.169,0.1756,0.178,0.1803,0.182,0.1853,0.1894,0.1841,0.184,0.184,0.1918,0.1793,0.1787,0.1879,0.188,0.1881,0.1902,0,0.1426,0.1446,0.1461,0.149,0.1501,0.1529,0.1561,0.1597,0.1636,0.168,0.1733,0.1784,0.1804,0.1837,0.1872,0.1892,0.1913,0.1891,0.1883,0.1883,0.1761,0.1791,0.1658,0.1655,0.1908,0.1908,0.1909,0,0.1432,0.1447,0.1462,0.1491,0.1499,0.1526,0.1575,0.1602,0.1673,0.1708,0.1778,0.1815,0.1896,0.1887,0.1958,0.1945,0.194,0.1949,0.1949,0.1827,0.1769,0.1655,0.1656,0.1919,0.1918,0.1917,0.1917,0,0.1411,0.1444,0.1451,0.1463,0.1506,0.1524,0.1553,0.1619,0.1649,0.1731,0.1776,0.186,0.1905,0.1939,0.197,0.197,0.2017,0.2004,0.1885,0.1876,0.1759,0.1736,0.2027,0.2027,0.2027,0.2027,0.2027,0,0.1399,0.1407,0.1446,0.1453,0.1479,0.1514,0.1554,0.1597,0.167,0.1711,0.1792,0.1837,0.1922,0.1957,0.1976,0.1948,0.2015,0.1902,0.1874,0.1765,0.1744,0.197,0.1963,0.2027,0.2027,0.2027,0.2027,0,0.1357,0.1383,0.1394,0.1443,0.1465,0.1479,0.1546,0.1582,0.1658,0.1712,0.1744,0.1836,0.1879,0.1932,0.1973,0.1934,0.193,0.1888,0.1752,0.1706,0.1786,0.1781,0.1778,0.1774,0.177,0.1767,0.1765,0,0.1327,0.1337,0.1379,0.1399,0.1422,0.146,0.1497,0.1569,0.1601,0.1697,0.1714,0.1784,0.1791,0.1806,0.1779,0.1766,0.1836,0.1597,0.1562,0.1788,0.1762,0.1762,0.1762,0.1434,0.1429,0.1425,0.1422,0,0.1293,0.1313,0.1331,0.1368,0.1404,0.1433,0.1483,0.1504,0.1579,0.1608,0.1637,0.165,0.1654,0.1565,0.153,0.1508,0.1595,0.1507,0.1791,0.1497,0.1459,0.1434,0.1447,0.1385,0.1389,0.1392,0.1394,0.1395,0.1278,0.1281,0.1323,0.1334,0.1378,0.1407,0.1396,0.1435,0.145,0.1454,0.1509,0.1452,0.1446,0.1314,0.1263,0.1228,0.1341,0.1279,0.1295,0.1314,0.1249,0.1205,0.1073,0.1074,0.1076,0.1077,0.1078,0,0.1251,0.127,0.1295,0.1314,0.1318,0.1362,0.1384,0.1337,0.1291,0.1304,0.1279,0.1142,0.105,0.106,0.0939,0.0903,0.0937,0.0867,0.0915,0.0951,0.0982,0.0904,0.0635,0.0633,0.0632,0.0631,0,0,0.1255,0.1257,0.125,0.1241,0.1257,0.1234,0.1217,0.1149,0.1118,0.1037,0.0975,0.1013,0.1016,0.0824,0.0785,0.069,0.0825,0.066,0.1016,0.1109,0.114,0.1213,0.113,0,0,0,0,0]},{"header":{"parameterUnit":"m.s-1","parameterCategory":2,"la1":30.2991,"la2":30.254,"lo1":-89.0895,"lo2":-89.0444,"dy":0.0017,"dx":0.0017,"nx":28,"ny":28,"refTime":"2024-08-19T21:00:00:Z","depth":"2","parameterNumber":3,"parameterNumberName":"V-component_of_CURRENTS"},"data":[0,0,0,0,0,0,0,0,0,0,0,0,0,0,0,0,0,0,0,0,0,0,0,0,0,0,0,0,0,0,0,0,0,0,0,0,0,0,0,0,0,0,0,0,0,0,0,0,0,0,0,0,0,0,0,0,0,0,-0.0003,-0.0003,0,-0.0022,-0.0022,-0.0023,-0.0045,-0.0046,-0.0046,-0.0046,-0.0049,-0.0049,-0.0049,0,0,0,0,0,0,0,0,0,0,0,0,0,-0.0025,-0.0024,-0.0003,-0.0003,-0.0003,-0.0022,-0.0022,-0.0023,-0.0045,-0.0046,-0.0046,-0.0046,-0.0049,-0.0049,-0.0049,0,0,0,0,0,0,0,0,0,0,0,0,0,-0.0029,-0.0024,-0.0003,-0.0015,-0.0016,-0.0022,-0.0022,-0.0023,-0.0045,-0.0046,-0.0046,-0.0046,-0.0049,-0.0049,-0.0049,-0.0044,0,0,-0.0049,-0.0049,0,0,0,0,0,0,0,0,-0.0029,-0.0028,-0.0013,-0.0014,-0.0015,-0.003,-0.0031,-0.0028,-0.0045,-0.0037,-0.0046,-0.0046,-0.0039,-0.004,-0.0047,-0.0044,-0.0045,-0.0049,-0.0049,-0.0049,-0.0049,0,0,0,0,0,0,0,-0.0028,-0.0028,-0.0013,-0.0013,-0.0014,-0.0032,-0.0033,-0.0031,-0.0038,-0.0037,-0.0039,-0.0037,-0.004,-0.0047,-0.0047,-0.0045,-0.0049,-0.0049,-0.0049,-0.0049,-0.0037,-0.0037,0,0,0,0,0,0,-0.0019,-0.0027,-0.0012,-0.0013,-0.002,-0.0031,-0.0032,-0.0027,-0.0039,-0.004,-0.0037,-0.0038,-0.0047,-0.0047,-0.0047,-0.0033,-0.0049,-0.0049,-0.0048,-0.0038,-0.0037,-0.0037,0,0,0,0,0,0,-0.0019,-0.0017,-0.0011,-0.0019,-0.002,-0.003,-0.0024,-0.0027,-0.0037,-0.0038,-0.0039,-0.0044,-0.0047,-0.0047,-0.0041,-0.0034,-0.0048,-0.0048,-0.0038,-0.0037,-0.0037,-0.0011,0,0,0,0,0,0,-0.002,-0.0017,-0.0015,-0.0018,-0.0019,-0.0008,-0.0024,-0.0027,-0.0035,-0.0036,-0.0045,-0.0045,-0.0047,-0.0041,-0.0041,-0.0034,-0.0048,-0.0038,-0.0038,-0.0037,-0.0012,-0.001,-0.0008,0,0,0,0,0,-0.002,-0.0013,-0.0015,-0.0013,-0.0013,-0.0007,-0.0009,-0.002,-0.0035,-0.0032,-0.0038,-0.0045,-0.0038,-0.004,-0.004,-0.0033,-0.0038,-0.0038,-0.0037,-0.0013,-0.001,-0.0008,0,0,0,0,0,0,-0.0021,-0.0014,-0.0017,-0.0007,-0.0004,-0.001,-0.0014,-0.0021,-0.0027,-0.0033,-0.0039,-0.0039,-0.0031,-0.0036,-0.0039,-0.003,-0.004,-0.004,-0.0022,-0.0019,-0.0017,0.0006,-0.0048,0,0,0,0,0,-0.0019,-0.0014,-0.0007,-0.0001,-0.0001,-0.001,-0.0012,-0.0016,-0.0019,-0.0024,-0.0021,-0.0026,-0.0029,-0.0027,-0.0026,-0.0019,-0.002,-0.0016,-0.0014,-0.0012,0.0006,0.0007,0.0012,-0.0035,-0.0035,-0.0035,0,0,-0.002,-0.0014,-0.0013,-0.0002,-0.0007,0.0005,-0.0013,-0.0013,0.0001,-0.0021,-0.0003,-0.0016,-0.0025,-0.0016,-0.0014,-0.0019,-0.0001,-0.0011,-0.001,0.0008,0.0009,0.0013,0.0017,-0.0035,-0.0035,-0.0035,0,0,-0.0009,-0.0013,0.0,0.0005,0.0009,0.0008,0.0009,0.0011,0.0015,0.0027,0.0013,0.0012,0.001,0.0012,0.0008,0.0024,0.0011,0.0013,0.0045,0.0045,0.0049,0.0053,0.0051,0.0054,0.0014,0.0014,0.0014,0,-0.0003,0.001,0.0004,0.0021,0.0028,0.0012,0.0031,0.0034,0.0042,0.0052,0.0038,0.0039,0.0028,0.004,0.0042,0.0031,0.0025,0.0034,0.0049,0.0053,0.0056,0.0053,0.0056,0.0015,0.0015,0.0015,0.0015,0,0.002,0.003,0.0035,0.0054,0.0062,0.007,0.0081,0.0091,0.0086,0.0091,0.0105,0.0092,0.0094,0.0082,0.0065,0.0082,0.0068,0.0051,0.0044,0.0063,0.0058,0.0061,0.0017,0.0017,0.0017,0.0016,0,0,0.0035,0.0052,0.0053,0.0069,0.008,0.0091,0.0115,0.0137,0.0153,0.0155,0.0185,0.0168,0.0156,0.0152,0.0131,0.0129,0.0136,0.0101,0.01,0.0103,0.0134,0.0108,0.0109,0.0117,0.0118,0.0119,0.0118,0,0.0057,0.0095,0.0098,0.013,0.0148,0.0147,0.0173,0.0189,0.0195,0.0222,0.021,0.0221,0.0185,0.018,0.0176,0.0154,0.0147,0.0138,0.0113,0.0113,0.0091,0.0113,0.0121,0.012,0.0121,0.0122,0.0122,0,0.0079,0.0102,0.0141,0.0173,0.0181,0.0197,0.0229,0.0254,0.0279,0.0283,0.0291,0.0282,0.0291,0.0249,0.0233,0.0226,0.0186,0.0161,0.016,0.0135,0.0094,0.0103,0.0126,0.0127,0.0127,0.0126,0.0126,0,0.0093,0.0131,0.0164,0.0174,0.0208,0.0225,0.0242,0.0268,0.0301,0.0325,0.0347,0.0345,0.0358,0.0316,0.0264,0.0247,0.0242,0.021,0.015,0.0148,0.0152,0.0148,0.0194,0.0194,0.0194,0.0194,0.0194,0,0.0117,0.0142,0.0169,0.0186,0.0228,0.0244,0.0287,0.0303,0.0342,0.0394,0.0381,0.0419,0.0375,0.0365,0.0297,0.0243,0.0266,0.0171,0.0152,0.0159,0.0156,0.016,0.0156,0.0194,0.0194,0.0194,0.0194,0,0.0136,0.0149,0.0191,0.0225,0.0235,0.0268,0.0316,0.0355,0.0379,0.0451,0.0464,0.0488,0.0477,0.0421,0.0365,0.0295,0.0233,0.0198,0.0208,0.0191,0.0129,0.0126,0.0144,0.0143,0.0142,0.0142,0.0141,0,0.0152,0.0173,0.0218,0.0244,0.026,0.0302,0.0338,0.0369,0.042,0.0496,0.0543,0.0554,0.0566,0.0477,0.0368,0.0258,0.0236,0.0178,0.0145,0.0147,0.0127,0.0125,0.0123,0.0158,0.0158,0.0158,0.0158,0,0.0187,0.0199,0.023,0.0279,0.0316,0.037,0.0423,0.0467,0.0528,0.0582,0.0654,0.0662,0.0595,0.0499,0.0348,0.0267,0.0197,0.0168,0.0185,0.0163,0.0159,0.0139,0.0138,0.0156,0.0156,0.0156,0.0156,0.0156,0.0205,0.0235,0.0269,0.0319,0.0365,0.0433,0.0483,0.0545,0.062,0.0697,0.0711,0.0707,0.062,0.0418,0.0304,0.0178,0.0183,0.0121,0.0123,0.0125,0.012,0.0114,0.0101,0.0101,0.0101,0.0101,0.0101,0,0.0238,0.0265,0.0311,0.0367,0.0424,0.0444,0.0542,0.0589,0.0674,0.071,0.0742,0.0638,0.053,0.0416,0.0231,0.0119,0.0113,0.0078,0.0101,0.0104,0.0107,0.0101,0.0078,0.0078,0.0077,0.0077,0,0,0.0253,0.0297,0.0323,0.0407,0.0449,0.0524,0.0583,0.0643,0.0678,0.0704,0.0686,0.0662,0.0541,0.04,0.0275,0.0172,0.0153,0.0145,0.0175,0.022,0.0224,0.0146,0.0142,0,0,0,0,0]}],[{"header":{"parameterUnit":"m.s-1","parameterCategory":2,"la1":30.2991,"la2":30.254,"lo1":-89.0895,"lo2":-89.0444,"dy":0.0017,"dx":0.0017,"nx":28,"ny":28,"refTime":"2024-08-19T21:00:00:Z","depth":"4","parameterNumber":2,"parameterNumberName":"U-component_of_CURRENTS"},"data":[0,0,0,0,0,0,0,0,0,0,0,0,0,0,0,0,0,0,0,0,0,0,0,0,0,0,0,0,0,0,0,0,0,0,0,0,0,0,0,0,0,0,0,0,0,0,0,0,0,0,0,0,0,0,0,0,0,0,0.0502,0.0503,0,0.0495,0.0495,0.0494,0.0512,0.0513,0.0514,0.0515,0.0562,0.0562,0.0563,0,0,0,0,0,0,0,0,0,0,0,0,0,0.0487,0.0487,0.0502,0.0503,0.0503,0.0495,0.0495,0.0494,0.0512,0.0513,0.0514,0.0516,0.0562,0.0562,0.0563,0,0,0,0,0,0,0,0,0,0,0,0,0,0.0484,0.0487,0.0502,0.0514,0.0515,0.0495,0.0495,0.0494,0.0512,0.0513,0.0515,0.0516,0.0562,0.0562,0.0563,0.0538,0,0,0.0565,0.0565,0,0,0,0,0,0,0,0,0.0484,0.0484,0.0512,0.0513,0.0515,0.051,0.0506,0.0513,0.0512,0.0509,0.0515,0.0517,0.0551,0.0553,0.0541,0.054,0.0542,0.0565,0.0565,0.0565,0.0565,0,0,0,0,0,0,0,0.0484,0.0484,0.0495,0.0512,0.0514,0.0504,0.0506,0.0507,0.052,0.0509,0.0511,0.0517,0.0552,0.0541,0.0543,0.0543,0.0565,0.0565,0.0565,0.0566,0.0626,0.0628,0,0,0,0,0,0,0.0494,0.0484,0.0496,0.0495,0.0507,0.0504,0.0505,0.0506,0.0519,0.0523,0.0516,0.0518,0.0539,0.0542,0.0545,0.0598,0.0565,0.0566,0.0566,0.0625,0.0627,0.0628,0,0,0,0,0,0,0.0494,0.0495,0.0496,0.0493,0.0493,0.0504,0.0504,0.0506,0.052,0.0524,0.0528,0.0532,0.054,0.0544,0.0588,0.0597,0.0566,0.0566,0.0624,0.0626,0.0627,0.0652,0,0,0,0,0,0,0.0493,0.0495,0.0504,0.0494,0.0494,0.0505,0.0504,0.0505,0.0521,0.0524,0.0539,0.0543,0.0542,0.0588,0.0589,0.0598,0.0567,0.0622,0.0625,0.0627,0.065,0.0655,0.0659,0,0,0,0,0,0.0492,0.0498,0.0504,0.0507,0.0505,0.0506,0.0506,0.0514,0.0521,0.053,0.0557,0.0544,0.0604,0.059,0.0591,0.0599,0.0621,0.0624,0.0627,0.0648,0.0654,0.0659,0,0,0,0,0,0,0.0493,0.05,0.0507,0.0515,0.0523,0.0512,0.0519,0.0525,0.0546,0.056,0.0563,0.0569,0.0615,0.0606,0.0591,0.0627,0.0608,0.0612,0.0624,0.063,0.0634,0.0625,0.0567,0,0,0,0,0,0.0498,0.0503,0.0512,0.0517,0.0525,0.0525,0.0529,0.0539,0.0554,0.0564,0.0579,0.0598,0.0619,0.0628,0.0648,0.066,0.0668,0.0667,0.0672,0.0675,0.0671,0.0721,0.073,0.0638,0.0638,0.0638,0,0,0.0496,0.0503,0.0505,0.0518,0.0521,0.0533,0.0531,0.0547,0.0561,0.0566,0.0601,0.0624,0.0633,0.066,0.0676,0.0656,0.0705,0.0679,0.0682,0.0675,0.0725,0.0734,0.0742,0.064,0.0639,0.0639,0,0,0.0499,0.0505,0.0519,0.0525,0.0546,0.0549,0.0562,0.0575,0.0589,0.0622,0.0638,0.0668,0.0692,0.0697,0.07,0.0739,0.074,0.075,0.075,0.0799,0.0807,0.0814,0.0827,0.0835,0.0738,0.0738,0.0738,0,0.0503,0.0511,0.0522,0.0537,0.0542,0.0561,0.0576,0.0587,0.0617,0.0634,0.0645,0.0695,0.0701,0.0724,0.074,0.0746,0.0773,0.0725,0.0805,0.0812,0.0818,0.083,0.0838,0.0739,0.0739,0.0739,0.0739,0,0.0512,0.0523,0.0528,0.0553,0.0566,0.0576,0.06,0.0626,0.0649,0.0663,0.0712,0.0727,0.0755,0.0758,0.0758,0.0803,0.0807,0.0817,0.0787,0.0829,0.0839,0.0847,0.0741,0.0741,0.074,0.074,0,0,0.0512,0.0531,0.0536,0.0546,0.0572,0.0584,0.0615,0.0645,0.0672,0.0705,0.0734,0.0762,0.0783,0.079,0.0797,0.082,0.0881,0.0838,0.084,0.0844,0.0982,0.0883,0.0882,0.0923,0.0925,0.0926,0.0966,0,0.0517,0.0538,0.055,0.0572,0.0583,0.0604,0.0628,0.0664,0.0697,0.0736,0.0753,0.0795,0.0792,0.0815,0.0843,0.0885,0.0907,0.0868,0.0947,0.0948,0.085,0.089,0.0932,0.0972,0.0974,0.0975,0.0976,0,0.0527,0.0537,0.0557,0.0578,0.0588,0.0612,0.0657,0.0687,0.0741,0.0765,0.0806,0.0834,0.0872,0.0869,0.0945,0.0932,0.0961,0.0977,0.098,0.0882,0.0864,0.0926,0.0991,0.099,0.0989,0.0988,0.0987,0,0.0519,0.0542,0.0556,0.056,0.0593,0.0618,0.0651,0.0706,0.0735,0.0802,0.083,0.0882,0.0924,0.0971,0.1001,0.0999,0.1077,0.1078,0.1005,0.0997,0.1062,0.1054,0.1134,0.1134,0.1133,0.1133,0.1133,0,0.0507,0.052,0.0557,0.0562,0.059,0.0629,0.0676,0.0711,0.0771,0.0807,0.0861,0.0887,0.0964,0.1008,0.1026,0.1032,0.1105,0.1005,0.1007,0.107,0.1063,0.1067,0.1059,0.1135,0.1134,0.1134,0.1134,0,0.0488,0.051,0.0528,0.0569,0.0585,0.0618,0.068,0.071,0.078,0.0829,0.0854,0.0925,0.0983,0.1021,0.1094,0.1059,0.1071,0.1055,0.1099,0.1103,0.0949,0.0942,0.0979,0.0976,0.0973,0.0971,0.0969,0,0.0471,0.0479,0.0525,0.0544,0.0566,0.0615,0.0641,0.0707,0.0738,0.0834,0.0848,0.0929,0.0964,0.0986,0.1028,0.1041,0.103,0.1019,0.0992,0.0938,0.0937,0.0934,0.0931,0.0965,0.0965,0.0964,0.0963,0,0.0434,0.0462,0.0479,0.052,0.0553,0.0567,0.0617,0.063,0.0709,0.0779,0.083,0.0856,0.091,0.0944,0.096,0.0966,0.1015,0.0992,0.0998,0.0972,0.0922,0.0923,0.0923,0.0954,0.0956,0.0957,0.0957,0,0.0414,0.0413,0.0451,0.0488,0.0517,0.0513,0.0539,0.058,0.0619,0.0732,0.0748,0.0829,0.0911,0.0904,0.0914,0.0911,0.0897,0.0861,0.0873,0.0883,0.0827,0.0749,0.0731,0,0,0,0,0,0.0392,0.0396,0.0415,0.0443,0.0469,0.0486,0.0516,0.0545,0.0625,0.0645,0.0699,0.0743,0.0772,0.0809,0.0787,0.084,0.0879,0.0805,0.0838,0.0905,0.0915,0.0856,0,0,0,0,0,0,0.0381,0.0397,0.0401,0.0402,0.0415,0.0422,0.0435,0.0479,0.0498,0.0594,0.0624,0.0696,0.0742,0.0799,0.0783,0.0788,0.0787,0.0856,0.0853,0.0899,0.0908,0.0917,0.0859,0,0,0,0,0]},{"header":{"parameterUnit":"m.s-1","parameterCategory":2,"la1":30.2991,"la2":30.254,"lo1":-89.0895,"lo2":-89.0444,"dy":0.0017,"dx":0.0017,"nx":28,"ny":28,"refTime":"2024-08-19T21:00:00:Z","depth":"4","parameterNumber":3,"parameterNumberName":"V-component_of_CURRENTS"},"data":[0,0,0,0,0,0,0,0,0,0,0,0,0,0,0,0,0,0,0,0,0,0,0,0,0,0,0,0,0,0,0,0,0,0,0,0,0,0,0,0,0,0,0,0,0,0,0,0,0,0,0,0,0,0,0,0,0,0,0.0177,0.0177,0,0.019,0.019,0.019,0.0205,0.0205,0.0205,0.0205,0.0186,0.0186,0.0185,0,0,0,0,0,0,0,0,0,0,0,0,0,0.0168,0.0168,0.0177,0.0177,0.0177,0.019,0.019,0.019,0.0205,0.0205,0.0205,0.0205,0.0186,0.0186,0.0185,0,0,0,0,0,0,0,0,0,0,0,0,0,0.0177,0.0168,0.0177,0.0184,0.0185,0.019,0.019,0.019,0.0205,0.0205,0.0205,0.0205,0.0187,0.0186,0.0185,0.0179,0,0,0.0183,0.0182,0,0,0,0,0,0,0,0,0.0177,0.0178,0.0183,0.0183,0.0184,0.0194,0.018,0.0185,0.0205,0.0199,0.0205,0.0205,0.0185,0.0184,0.019,0.0179,0.0178,0.0183,0.0182,0.0182,0.0182,0,0,0,0,0,0,0,0.0176,0.0177,0.0184,0.0183,0.0184,0.0187,0.0189,0.0181,0.0192,0.02,0.02,0.0198,0.0185,0.019,0.0189,0.0178,0.0183,0.0182,0.0182,0.0181,0.0155,0.0155,0,0,0,0,0,0,0.017,0.0177,0.0183,0.0184,0.0178,0.0187,0.0189,0.0192,0.0193,0.0193,0.0198,0.0199,0.0192,0.019,0.0188,0.0185,0.0182,0.0181,0.0181,0.0155,0.0155,0.0155,0,0,0,0,0,0,0.017,0.0171,0.0183,0.0179,0.018,0.0187,0.0191,0.0192,0.0197,0.0192,0.0192,0.0201,0.0192,0.0189,0.0181,0.0184,0.0181,0.018,0.0156,0.0155,0.0155,0.0176,0,0,0,0,0,0,0.017,0.0171,0.0174,0.0179,0.018,0.0187,0.0191,0.0193,0.0195,0.0196,0.0194,0.0193,0.0191,0.0182,0.018,0.0183,0.0179,0.0156,0.0156,0.0155,0.0175,0.0176,0.0177,0,0,0,0,0,0.017,0.0173,0.0174,0.0174,0.0183,0.0187,0.0188,0.0195,0.0195,0.0199,0.0195,0.0193,0.0178,0.0181,0.0179,0.0182,0.0156,0.0156,0.0155,0.0175,0.0176,0.0177,0,0,0,0,0,0,0.0168,0.0174,0.0176,0.018,0.0183,0.0188,0.0191,0.0193,0.0195,0.0195,0.019,0.0188,0.018,0.0175,0.0179,0.0172,0.0166,0.0165,0.0182,0.0183,0.0184,0.0191,0.0179,0,0,0,0,0,0.0169,0.0177,0.0177,0.0182,0.0181,0.0186,0.0188,0.0193,0.0192,0.0194,0.0192,0.0186,0.0177,0.0175,0.0167,0.0164,0.0149,0.0163,0.0164,0.0165,0.0168,0.0142,0.0141,0.0153,0.0153,0.0153,0,0,0.017,0.0174,0.0179,0.0183,0.0186,0.019,0.0188,0.0193,0.0199,0.019,0.0196,0.0186,0.0174,0.0172,0.0169,0.017,0.0153,0.0164,0.0165,0.0168,0.0142,0.014,0.0139,0.0153,0.0153,0.0153,0,0,0.0176,0.0178,0.0186,0.0189,0.0192,0.0195,0.0194,0.0199,0.0202,0.0204,0.0196,0.0185,0.0181,0.0173,0.0167,0.0164,0.0154,0.0165,0.0181,0.0155,0.0154,0.0153,0.0132,0.0129,0.017,0.017,0.017,0,0.0178,0.0189,0.0188,0.0194,0.02,0.0196,0.0204,0.0205,0.0208,0.021,0.0207,0.0193,0.018,0.0172,0.0175,0.0166,0.0155,0.018,0.0157,0.0156,0.0154,0.0132,0.0129,0.0171,0.0171,0.0171,0.0171,0,0.019,0.0199,0.0202,0.0213,0.0215,0.0224,0.0221,0.0226,0.0226,0.0228,0.0221,0.0203,0.0197,0.0188,0.0183,0.017,0.0166,0.0157,0.0157,0.0154,0.0131,0.0127,0.0173,0.0172,0.0172,0.0172,0,0,0.0198,0.021,0.0213,0.0224,0.0229,0.0235,0.024,0.0246,0.0253,0.0246,0.025,0.0229,0.0221,0.0214,0.02,0.018,0.0156,0.0173,0.0171,0.0156,0.0107,0.0109,0.0104,0.0149,0.0148,0.0148,0.0096,0,0.0211,0.023,0.0233,0.0253,0.0262,0.0263,0.0272,0.0275,0.0273,0.0275,0.025,0.0246,0.023,0.0229,0.0206,0.0171,0.0146,0.0171,0.0109,0.0107,0.0112,0.0099,0.0146,0.0092,0.0091,0.0091,0.009,0,0.0221,0.0238,0.0259,0.0281,0.0285,0.0296,0.0312,0.0321,0.0316,0.0315,0.0302,0.0283,0.0256,0.0238,0.0176,0.0197,0.0155,0.0122,0.0119,0.0112,0.01,0.0095,0.0082,0.0083,0.0083,0.0084,0.0084,0,0.0229,0.0254,0.0276,0.0284,0.0306,0.0319,0.0332,0.0336,0.0349,0.034,0.0343,0.0307,0.0291,0.0235,0.0171,0.0176,0.0097,0.009,0.0048,0.0047,0.0053,0.0055,0.0035,0.0035,0.0036,0.0036,0.0036,0,0.0241,0.026,0.0284,0.0299,0.0332,0.0339,0.0369,0.0375,0.0384,0.0397,0.0368,0.0357,0.0291,0.0239,0.0177,0.0102,0.0097,0.0048,0.0033,0.0063,0.0066,0.005,0.0052,0.0034,0.0034,0.0035,0.0035,0,0.0244,0.026,0.0288,0.0321,0.0336,0.036,0.04,0.0421,0.0425,0.0437,0.0436,0.0396,0.0334,0.0259,0.0163,0.0113,0.0037,0.0007,0.0047,0.0035,0.0002,0.0006,-0.0041,-0.0042,-0.0042,-0.0042,-0.0042,0,0.0246,0.0262,0.0305,0.033,0.0348,0.0388,0.042,0.0442,0.0459,0.0455,0.0457,0.0407,0.0369,0.0238,0.0157,0.004,0.0021,-0.002,-0.0011,0.0004,-0.0006,-0.0002,0.0003,-0.0043,-0.0043,-0.0043,-0.0043,0,0.0257,0.0271,0.0296,0.0344,0.0382,0.0427,0.0465,0.0476,0.0496,0.0502,0.047,0.0406,0.0335,0.0237,0.0149,0.0062,0.0009,-0.0024,-0.0024,-0.0015,0.0001,-0.0007,-0.0003,-0.0044,-0.0044,-0.0044,-0.0044,0,0.0261,0.028,0.0313,0.0353,0.0402,0.0442,0.0465,0.0483,0.0501,0.0493,0.0478,0.0404,0.0365,0.0247,0.016,0.0084,0.0064,0.0033,0.003,0.0031,0.0069,0.0101,0.0072,0,0,0,0,0,0.0265,0.0287,0.0323,0.0362,0.0408,0.044,0.0486,0.0504,0.0516,0.0499,0.049,0.0422,0.0305,0.0251,0.0175,0.0149,0.0047,0.0056,0.001,-0.0051,-0.005,-0.0017,0,0,0,0,0,0,0.0271,0.0301,0.0319,0.0361,0.039,0.0444,0.0476,0.0489,0.0476,0.0476,0.0416,0.0396,0.0283,0.0348,0.017,0.0147,0.0105,0.0007,0.0005,-0.0052,-0.0051,-0.0049,-0.0015,0,0,0,0,0]}]]